Regional Weather Roundup
Issued by NWS Charleston, WV

Home | Current Version | Previous Version | Graphics & Text | Print | Product List | Glossary On
Versions: 1 2 3 4 5 6 7 8 9 10 11 12 13 14 15 16 17 18 19 20 21 22 23 24 25 26 27 28 29 30 31 32 33 34 35 36 37 38 39 40 41 42 43 44 45 46 47 48 49 50
325
ASUS41 KRLX 291910
RWRRLX
West Virginia Regional Weather Roundup
National Weather Service Charleston WV
300 PM EDT FRI APR 29 2016

Note: "fair" indicates few or no clouds below 12,000 feet with no
significant weather and/or obstructions to visibility.

WVZ003-292000-
Northern Panhandle of West Virginia

CITY           SKY/WX    TMP DP  RH WIND       PRES   REMARKS
WHEELING       CLOUDY    57  47  69 W8        30.00R
$$

WVZ009-292000-
Northwest West Virginia

CITY           SKY/WX    TMP DP  RH WIND       PRES   REMARKS
PARKERSBURG    CLOUDY    62  54  74 N9        30.02F
$$

WVZ006-292000-
Western West Virginia

CITY           SKY/WX    TMP DP  RH WIND       PRES   REMARKS
HUNTINGTON       N/A     75  50  41 SW13G18   29.97F
$$

WVZ015-292000-
West Central West Virginia

CITY           SKY/WX    TMP DP  RH WIND       PRES   REMARKS
CHARLESTON       N/A     75  50  41 W8        29.96F
$$

WVZ022-031-292000-
North Central West Virginia

CITY           SKY/WX    TMP DP  RH WIND       PRES   REMARKS
CLARKSBURG     PTSUNNY   68  54  60 NW9G18    29.95S
MORGANTOWN       N/A     68  48  48 SW12G17   29.97R
$$

WVZ025-035-042-045-292000-
Southern West Virginia

CITY           SKY/WX    TMP DP  RH WIND       PRES   REMARKS
BECKLEY          N/A     73  44  35 NW15G22   30.01S
LOGAN          NOT AVBL
BLUEFIELD        N/A     71  44  37 NW10G20   30.03S
LEWISBURG        N/A     72  42  33 NW7       29.98F
$$

WVZ047-292000-
Northern Mountains of West Virginia

CITY           SKY/WX    TMP DP  RH WIND       PRES   REMARKS
ELKINS         PTSUNNY   70  48  45 W12       29.97R
$$

WVZ052-292000-
Eastern Panhandle of West Virginia

CITY           SKY/WX    TMP DP  RH WIND       PRES   REMARKS
MARTINSBURG    CLOUDY    50  47  89 E6        30.03S FOG
PETERSBURG     PTSUNNY   64  56  74 NW5       29.97S
$$




USA.gov is the U.S. government's official web portal to all federal, state and local government web resources and services.